Location: Asheville, NC
(35.6000°N, 82.5500°W)
Time: 03:11:33
(UTC-04:00)

KKS-1 - Pass Details

Date: 10 March 2018
Orbit: 638 x 649 km, 98.4° (Epoch: 19 June)

Event Time Altitude Azimuth Distance (km) Brightness Sun altitude
Rises 18:51:58 0° 359° (N) 2,966 ? -4.6°
Reaches altitude 10° 18:54:25 10° 348° (NNW) 2,050 ? -5.1°
Maximum altitude 18:58:13 28° 290° (WNW) 1,209 ? -5.8°
Drops below altitude 10° 19:01:59 10° 232° (SW) 2,032 ? -6.6°
Sets 19:04:25 0° 220° (SW) 2,936 ? -7.1°
